When you browse on this site, cookies collect data to enhance your experience and personalize the content and advertising you see.
Visit our Privacy Policy to learn more. By continuing to use the site, you agree to this use of cookies and data.
  • In Österreich
  • Länderverzeichnis
  • Für 7 Tage
  • Wassertemperatur
  • Wetterkarte
  • News
  • Widgets
  • user-avatar
    Anmelden

    Stündliche Wetter Kotschabamba

    Heute, 18 Oktober, Freitag

    Zeit Temperatur Niederschläge Wind Luftdruck Luftfeuchtigkeit
    00:00 +15°C° 0 mm 2 m/S 554 mmHg 72%
    01:00 +15°C° 0 mm 2 m/S 554 mmHg 72%
    02:00 +15°C° 0 mm 2 m/S 554 mmHg 73%
    03:00 +14°C° 0 mm 2 m/S 554 mmHg 74%
    04:00 +14°C° 0 mm 2 m/S 554 mmHg 75%
    05:00 +14°C° 0 mm 2 m/S 554 mmHg 76%
    06:00 +15°C° 0 mm 2 m/S 555 mmHg 72%
    07:00 +16°C° 0 mm 2 m/S 556 mmHg 67%
    08:00 +17°C° 0 mm 2 m/S 556 mmHg 62%
    09:00 +18°C° 0.2 mm 2 m/S 557 mmHg 59%
    10:00 +19°C° 0.2 mm 2 m/S 558 mmHg 55%
    11:00 +21°C° 0.2 mm 3 m/S 558 mmHg 52%
    12:00 +21°C° 0.3 mm 3 m/S 557 mmHg 52%
    13:00 +21°C° 0.3 mm 3 m/S 557 mmHg 53%
    14:00 +21°C° 0.3 mm 4 m/S 556 mmHg 53%
    15:00 +20°C° 0.2 mm 4 m/S 556 mmHg 56%
    16:00 +20°C° 0.2 mm 4 m/S 555 mmHg 59%
    17:00 +19°C° 0.2 mm 4 m/S 554 mmHg 62%
    18:00 +18°C° 0.2 mm 4 m/S 555 mmHg 64%
    19:00 +17°C° 0.2 mm 3 m/S 555 mmHg 66%
    20:00 +16°C° 0.2 mm 3 m/S 555 mmHg 69%
    21:00 +16°C° 0 mm 3 m/S 555 mmHg 70%
    22:00 +16°C° 0 mm 2 m/S 556 mmHg 71%
    23:00 +15°C° 0 mm 2 m/S 556 mmHg 73%

    Morgen, 19 Oktober, Samstag

    Zeit Temperatur Niederschläge Wind Luftdruck Luftfeuchtigkeit
    00:00 +15°C° 0 mm 2 m/S 556 mmHg 74%
    01:00 +15°C° 0 mm 1 m/S 555 mmHg 75%
    02:00 +15°C° 0 mm 1 m/S 555 mmHg 76%
    03:00 +14°C° 0 mm 1 m/S 555 mmHg 77%
    04:00 +14°C° 0 mm 1 m/S 555 mmHg 77%
    05:00 +14°C° 0 mm 1 m/S 555 mmHg 78%
    06:00 +14°C° 0.4 mm 1 m/S 555 mmHg 78%
    07:00 +14°C° 0.4 mm 1 m/S 556 mmHg 77%
    08:00 +15°C° 0.4 mm 1 m/S 556 mmHg 77%
    09:00 +15°C° 0.9 mm 1 m/S 556 mmHg 75%
    10:00 +15°C° 0.9 mm 1 m/S 557 mmHg 74%
    11:00 +16°C° 0.9 mm 1 m/S 557 mmHg 72%
    12:00 +16°C° 0.5 mm 1 m/S 556 mmHg 71%
    13:00 +18°C° 0.5 mm 1 m/S 556 mmHg 69%
    14:00 +17°C° 0.5 mm 2 m/S 556 mmHg 68%
    15:00 +17°C° 0.7 mm 2 m/S 555 mmHg 68%
    16:00 +17°C° 0.7 mm 3 m/S 555 mmHg 68%
    17:00 +17°C° 0.7 mm 4 m/S 554 mmHg 68%
    18:00 +16°C° 0 mm 3 m/S 555 mmHg 69%
    19:00 +16°C° 0 mm 2 m/S 555 mmHg 71%
    20:00 +15°C° 0 mm 1 m/S 555 mmHg 73%
    21:00 +15°C° 0.1 mm 1 m/S 555 mmHg 71%
    22:00 +15°C° 0.1 mm 1 m/S 556 mmHg 70%
    23:00 +15°C° 0.1 mm 1 m/S 556 mmHg 69%

    übermorgen, 20 Oktober, Sonntag

    Zeit Temperatur Niederschläge Wind Luftdruck Luftfeuchtigkeit
    00:00 +15°C° 0 mm 1 m/S 555 mmHg 69%
    01:00 +15°C° 0 mm 1 m/S 555 mmHg 69%
    02:00 +14°C° 0 mm 1 m/S 554 mmHg 69%
    03:00 +13°C° 0 mm 0 m/S 554 mmHg 68%
    04:00 +13°C° 0 mm 0 m/S 554 mmHg 68%
    05:00 +13°C° 0 mm 0 m/S 553 mmHg 68%
    06:00 +14°C° 0 mm 0 m/S 554 mmHg 62%
    07:00 +16°C° 0 mm 1 m/S 555 mmHg 56%
    08:00 +18°C° 0 mm 1 m/S 556 mmHg 50%
    09:00 +20°C° 0 mm 1 m/S 557 mmHg 47%
    10:00 +21°C° 0 mm 1 m/S 557 mmHg 43%
    11:00 +23°C° 0 mm 1 m/S 557 mmHg 39%
    12:00 +23°C° 0.2 mm 1 m/S 557 mmHg 38%
    13:00 +24°C° 0.2 mm 2 m/S 557 mmHg 38%
    14:00 +25°C° 0.2 mm 2 m/S 556 mmHg 37%
    15:00 +24°C° 0.2 mm 2 m/S 556 mmHg 39%
    16:00 +24°C° 0.2 mm 3 m/S 555 mmHg 40%
    17:00 +24°C° 0.2 mm 3 m/S 555 mmHg 41%
    18:00 +21°C° 0 mm 3 m/S 554 mmHg 48%
    19:00 +20°C° 0 mm 3 m/S 554 mmHg 54%
    20:00 +18°C° 0 mm 2 m/S 554 mmHg 61%
    21:00 +18°C° 0 mm 2 m/S 554 mmHg 63%
    22:00 +18°C° 0 mm 1 m/S 554 mmHg 66%
    23:00 +18°C° 0 mm 1 m/S 554 mmHg 69%

    21 Oktober, Montag

    Zeit Temperatur Niederschläge Wind Luftdruck Luftfeuchtigkeit
    00:00 +18°C° 0 mm 1 m/S 554 mmHg 71%
    01:00 +16°C° 0 mm 1 m/S 554 mmHg 72%
    02:00 +16°C° 0 mm 1 m/S 553 mmHg 74%
    03:00 +15°C° 0 mm 1 m/S 553 mmHg 76%
    04:00 +15°C° 0 mm 1 m/S 553 mmHg 78%
    05:00 +15°C° 0 mm 1 m/S 553 mmHg 80%
    06:00 +15°C° 0 mm 1 m/S 554 mmHg 76%
    07:00 +16°C° 0 mm 1 m/S 555 mmHg 73%
    08:00 +18°C° 0 mm 1 m/S 555 mmHg 69%
    09:00 +19°C° 0.3 mm 1 m/S 556 mmHg 64%
    10:00 +20°C° 0.3 mm 1 m/S 556 mmHg 59%
    11:00 +22°C° 0.3 mm 1 m/S 557 mmHg 54%
    12:00 +21°C° 0.4 mm 2 m/S 557 mmHg 51%
    13:00 +23°C° 0.4 mm 2 m/S 556 mmHg 49%
    14:00 +24°C° 0.4 mm 2 m/S 556 mmHg 46%
    15:00 +22°C° 0.4 mm 3 m/S 555 mmHg 49%
    16:00 +21°C° 0.4 mm 4 m/S 555 mmHg 52%
    17:00 +21°C° 0.4 mm 5 m/S 554 mmHg 56%
    18:00 +19°C° 0.2 mm 4 m/S 554 mmHg 60%
    19:00 +18°C° 0.2 mm 3 m/S 554 mmHg 65%
    20:00 +18°C° 0.2 mm 1 m/S 554 mmHg 69%
    21:00 +18°C° 0.1 mm 1 m/S 554 mmHg 71%
    22:00 +18°C° 0.1 mm 1 m/S 554 mmHg 72%
    23:00 +16°C° 0.1 mm 1 m/S 555 mmHg 74%

    22 Oktober, Dienstag

    Zeit Temperatur Niederschläge Wind Luftdruck Luftfeuchtigkeit
    00:00 +16°C° 0 mm 1 m/S 554 mmHg 75%
    01:00 +16°C° 0 mm 1 m/S 554 mmHg 75%
    02:00 +15°C° 0 mm 1 m/S 554 mmHg 76%
    03:00 +15°C° 0 mm 1 m/S 554 mmHg 77%
    04:00 +15°C° 0 mm 1 m/S 554 mmHg 77%
    05:00 +15°C° 0 mm 1 m/S 554 mmHg 78%
    06:00 +15°C° 0 mm 1 m/S 554 mmHg 74%
    07:00 +16°C° 0 mm 1 m/S 555 mmHg 70%
    08:00 +18°C° 0 mm 1 m/S 556 mmHg 67%
    09:00 +19°C° 0 mm 1 m/S 556 mmHg 59%
    10:00 +21°C° 0 mm 1 m/S 557 mmHg 52%
    11:00 +22°C° 0 mm 1 m/S 557 mmHg 45%
    12:00 +23°C° 0 mm 2 m/S 557 mmHg 42%
    13:00 +24°C° 0 mm 2 m/S 557 mmHg 39%
    14:00 +24°C° 0 mm 2 m/S 557 mmHg 35%
    15:00 +24°C° 0 mm 3 m/S 556 mmHg 40%
    16:00 +22°C° 0 mm 4 m/S 555 mmHg 45%
    17:00 +21°C° 0 mm 5 m/S 554 mmHg 50%
    18:00 +20°C° 0.3 mm 4 m/S 554 mmHg 58%
    19:00 +18°C° 0.3 mm 3 m/S 554 mmHg 66%
    20:00 +16°C° 0.3 mm 2 m/S 553 mmHg 74%
    21:00 +16°C° 0.1 mm 2 m/S 554 mmHg 75%
    22:00 +16°C° 0.1 mm 1 m/S 554 mmHg 75%
    23:00 +16°C° 0.1 mm 1 m/S 554 mmHg 75%

    23 Oktober, Mittwoch

    Zeit Temperatur Niederschläge Wind Luftdruck Luftfeuchtigkeit
    00:00 +16°C° 0 mm 1 m/S 554 mmHg 75%
    01:00 +16°C° 0 mm 1 m/S 554 mmHg 75%
    02:00 +15°C° 0 mm 1 m/S 554 mmHg 74%
    03:00 +15°C° 0 mm 1 m/S 553 mmHg 77%
    04:00 +14°C° 0 mm 1 m/S 553 mmHg 80%
    05:00 +14°C° 0 mm 1 m/S 553 mmHg 83%
    06:00 +14°C° 0 mm 1 m/S 553 mmHg 78%
    07:00 +15°C° 0 mm 1 m/S 554 mmHg 74%
    08:00 +16°C° 0 mm 1 m/S 555 mmHg 70%
    09:00 +18°C° 0 mm 1 m/S 556 mmHg 62%
    10:00 +20°C° 0 mm 1 m/S 556 mmHg 55%
    11:00 +20°C° 0 mm 2 m/S 557 mmHg 47%
    12:00 +21°C° 0 mm 2 m/S 557 mmHg 44%
    13:00 +23°C° 0 mm 2 m/S 556 mmHg 42%
    14:00 +23°C° 0 mm 2 m/S 556 mmHg 39%
    15:00 +22°C° 0 mm 3 m/S 555 mmHg 43%
    16:00 +21°C° 0 mm 3 m/S 555 mmHg 47%
    17:00 +21°C° 0 mm 4 m/S 554 mmHg 51%
    18:00 +19°C° 0.1 mm 3 m/S 554 mmHg 57%
    19:00 +18°C° 0.1 mm 2 m/S 554 mmHg 63%
    20:00 +17°C° 0.1 mm 2 m/S 554 mmHg 68%
    21:00 +16°C° 0 mm 1 m/S 554 mmHg 70%
    22:00 +16°C° 0 mm 1 m/S 554 mmHg 71%
    23:00 +15°C° 0 mm 1 m/S 554 mmHg 73%
    Mehr zeigen